DAURIA DX 1
1 40071U 14037C 20058.80829654 .00000068 00000-0 16218-4 0 9990
2 40071 98.4501 231.1270 0009457 126.2135 233.9955 14.81336926304873
UKUBE-1
1 40074U 14037F 20058.73811558 .00000259 00000-0 38208-4 0 9994
2 40074 098.4530 240.4862 0005676 108.9953 251.1866 14.84200766305332
HODOYOSHI-1
1 40299U 14070B 20058.75840686 .00000461 00000-0 21952-4 0 9999
2 40299 97.3315 138.0307 0011840 219.4773 239.0060 15.23941953294954
CHUBUSAT-1
1 40300U 14070C 20058.94143417 .00000565 00000-0 27376-4 0 9992
2 40300 097.3006 131.3511 0018399 239.8253 294.0746 15.22373786294697
QSAT-EOS
1 40301U 14070D 20058.82923209 .00001386 00000-0 55294-4 0 9997
2 40301 97.3029 135.7720 0024226 217.0376 253.4224 15.26610737295058
FIREBIRD FU3
1 40377U 15003B 20058.79118605 .00001537 00000-0 63304-4 0 9998
2 40377 099.1099 096.3006 0124089 323.9303 035.3600 15.19661254280491
FIREBIRD FU4
1 40378U 15003C 20058.84240097 .00001578 00000-0 64772-4 0 9991
2 40378 99.1102 96.4540 0124258 323.6371 35.6462 15.19677493280515
GRIFEX
1 40379U 15003D 20058.81310331 .00001206 00000-0 54747-4 0 9997
2 40379 99.1167 88.9628 0133288 346.6959 13.0766 15.16122920280086
NO-84
1 40654U 15025D 20057.31597336 .00010419 00000-0 13359-3 0 8643
2 40654 54.9889 96.7636 0120070 256.9075 101.8394 15.51694876151606
DEORBITSAIL
1 40719U 15032E 20058.80159411 .00000293 00000-0 48796-4 0 9998
2 40719 97.8838 310.0886 0015592 201.4648 158.5910 14.76920380249766
NUDT-PHONESAT
1 40900U 15049B 20058.81838341 .00001885 00000-0 81424-4 0 9998
2 40900 97.4344 70.7409 0013125 20.9463 104.0154 15.23671986246341
XW-2A
1 40903U 15049E 20058.93272284 .00001688 00000-0 40649-4 0 9997
2 40903 097.3042 107.7351 0011821 309.4658 174.3957 15.42677722249436
XW-2C
1 40906U 15049H 20058.81892411 .00000418 00000-0 25209-4 0 9992
2 40906 97.4758 61.8186 0015909 43.1880 34.9497 15.15942653245490
XW-2D
1 40907U 15049J 20058.83019468 .00000373 00000-0 22726-4 0 9999
2 40907 97.4728 61.5204 0015234 40.7737 43.3062 15.16158659245512
LILACSAT-2
1 40908U 15049K 20058.87590692 .00000487 00000-0 30378-4 0 9995
2 40908 97.4883 60.0713 0017140 48.4894 69.2669 15.13965478245265
XW-2E
1 40909U 15049L 20058.82461848 .00000826 00000-0 43627-4 0 9999
2 40909 97.4631 64.8044 0014348 34.4463 48.0956 15.18218745245740
XW-2F
1 40910U 15049M 20058.81304691 .00000988 00000-0 52185-4 0 9990
2 40910 97.4673 63.9073 0015497 32.3584 91.7842 15.17730930245559
XW-2B
1 40911U 15049N 20058.81589414 .00000695 00000-0 39500-4 0 9990
2 40911 97.4747 62.1940 0015195 41.7019 81.2469 15.16088371245405
DCBB
1 40912U 15049P 20058.84836985 .00000885 00000-0 44102-4 0 9997
2 40912 97.4497 67.9657 0014960 12.5920 109.1429 15.20096578245917
TW-1C
1 40926U 15051B 20058.93515135 .00013962 00000-0 16260-3 0 9999
2 40926 097.1008 110.2110 0008158 134.3629 350.0773 15.61754274249758
TW-1A
1 40928U 15051D 20058.86217421 .00002245 00000-0 54504-4 0 9996
2 40928 97.1207 89.3527 0009358 221.0873 312.2499 15.42026378248320
IO-86
1 40931U 15052B 20055.63210036 .00001574 00000-0 12997-3 0 9991
2 40931 5.9956 67.1789 0015703 110.4614 16.6669 14.76634516238408
LQSat
1 40958U 15057A 20058.80882530 -.00000009 00000-0 62333-5 0 9995
2 40958 097.8670 125.7102 0019054 142.2804 217.9745 14.73109300236221
AO-85
1 40967U 15058D 20057.31582522 .00000062 00000-0 26281-4 0 9640
2 40967 64.7753 111.2794 0172549 116.3408 245.5516 14.76075778145028
ATHENOXAT-1
1 41168U 15077C 20057.38817686 .00001792 00000-0 58578-4 0 9997
2 41168 14.9874 163.5084 0011583 8.1273 351.9234 15.14132046232338
ChubuSat-2
1 41338U 16012B 20058.85862204 .00000285 00000-0 15411-4 0 9990
2 41338 031.0042 329.3978 0013612 101.4702 258.7463 15.00249707221117
ChubuSat-3
1 41339U 16012C 20058.79897910 .00000309 00000-0 17202-4 0 9993
2 41339 31.0134 327.5477 0013270 107.6832 252.5286 15.00418045221103
Horyu-4
1 41340U 16012D 20058.87727176 .00000414 00000-0 24645-4 0 9996
2 41340 031.0056 315.9396 0013825 132.1696 228.0116 15.01426390221244
OUFTI-1
1 41458U 16025C 20058.84166952 .00002074 00000-0 10790-3 0 9995
2 41458 98.0969 163.6663 0163829 221.7829 137.0794 15.06488235210822
e-st@r-II
1 41459U 16025D 20058.85599124 .00000765 00000-0 43126-4 0 9993
2 41459 098.0945 163.1789 0165009 223.3995 135.4121 15.06074748210797
AAUSAT4
1 41460U 16025E 20058.82585264 .00003179 00000-0 15968-3 0 9996
2 41460 098.0928 165.1018 0154752 213.7054 145.4253 15.08243244210966
LO-87
1 41557U 16033B 20058.82946301 .00000911 00000-0 36259-4 0 9993
2 41557 97.4053 149.7981 0015134 116.8871 243.3917 15.27762470208883
NuSat2
1 41558U 16033C 20058.80642163 .00001052 00000-0 39097-4 0 9991
2 41558 97.4096 151.6752 0014177 115.2387 245.0324 15.29716060208977
Lapan A3
1 41603U 16040E 20058.86692178 .00000127 00000-0 90494-5 0 9998
2 41603 97.3246 115.7782 0012016 225.7072 252.0796 15.19801071204340
Swayam
1 41607U 16040J 20058.44040628 .00001133 00000-0 49711-4 0 9996
2 41607 097.3329 120.3644 0012347 211.9597 148.0892 15.23924959204517
Pratham
1 41783U 16059A 20058.40496852 .00000030 00000-0 15153-4 0 9999
2 41783 98.0327 116.9007 0032410 307.2005 52.6240 14.63038975182641
AlSat 1N
1 41789U 16059G 20058.72310440 .00000071 00000-0 22396-4 0 9990
2 41789 98.0360 119.7734 0027007 294.1873 65.6498 14.64298930182824
ScatSat
1 41790U 16059H 20058.91859389 .00000015 00000-0 14701-4 0 9992
2 41790 098.1770 102.4092 0004393 262.7451 097.3241 14.50901995181198
TY-1
1 41844U 16066D 20058.86001250 .00000760 00000-0 33602-4 0 9998
2 41844 97.4047 68.2676 0015588 20.1527 100.5246 15.24666871183414
Pegasus-1
1 41846U 16066F 20057.93940192 .00000191 00000-0 39640-4 0 9990
2 41846 98.6783 106.7439 0366822 205.0394 153.2607 14.37708369172941
CAS-2T
1 41847U 16066G 20058.85563180 .00000052 00000-0 18449-4 0 9991
2 41847 98.6712 108.1692 0365565 198.2696 160.5069 14.38043579173526
EO-88
1 42017U 17008BX 20056.85430371 .00001391 00000-0 56613-4 0 9993
2 42017 097.3731 126.0102 0006366 015.5767 344.5667 15.26172075168376
nSIGHT1
1 42726U 98067MF 20057.10450992 .00085546 13836-4 28173-3 0 9992
2 42726 51.6290 84.2991 0005600 56.2872 303.8667 15.90510277157687
CAS-4B
1 42759U 17034B 20058.80630677 .00000174 00000-0 24127-4 0 9996
2 42759 43.0184 274.9519 0010599 47.6785 54.2846 15.09752034149242
CAS-4A
1 42761U 17034D 20058.87260552 .00000075 00000-0 18069-4 0 9995
2 42761 43.0202 273.9591 0011235 49.4490 325.1029 15.09829650149259
UCLSat
1 42765U 17036A 20058.80691046 .00000927 00000-0 41970-4 0 9993
2 42765 097.3168 115.9438 0012774 060.7767 299.4746 15.23269451149738
NIUSat
1 42766U 17036B 20058.79238134 .00000669 00000-0 32623-4 0 9995
2 42766 097.3164 113.6996 0016799 053.1756 307.1019 15.21519822148865
LituanicaSAT 2
1 42768U 17036D 20058.81745121 .00001535 00000-0 66750-4 0 9990
2 42768 097.3217 115.7722 0015952 050.8787 309.3866 15.23643695148990
Aalto 1
1 42775U 17036L 20058.78615277 .00000541 00000-0 26886-4 0 9994
2 42775 97.3146 114.0438 0015183 53.1185 307.1440 15.21676176148845
URSA MAIOR
1 42776U 17036M 20058.78812474 .00000606 00000-0 29618-4 0 9991
2 42776 097.3158 114.2845 0014993 053.0500 307.2107 15.21841266148857
Max Valier Sat
1 42778U 17036P 20058.79677981 .00000637 00000-0 30448-4 0 9993
2 42778 97.3207 115.4134 0013571 56.9668 303.2870 15.22420023148898
Pegasus
1 42784U 17036V 20058.81013508 .00000815 00000-0 37546-4 0 9996
2 42784 097.3173 115.6793 0013359 061.3393 298.9185 15.22975949148935
